Regional Weather Roundup
Issued by NWS

Home | Current Version | Previous Version | Text Only | Print | Product List | Glossary Off
Versions: 1 2 3 4 5 6 7 8 9 10 11 12 13 14 15 16 17 18 19 20 21 22 23 24 25 26 27 28 29 30 31 32 33 34 35 36 37 38 39 40 41 42 43 44 45 46 47 48 49 50

000
ASUS43 KBIS 172002
RWRND

NORTH DAKOTA REGIONAL WEATHER ROUNDUP
NATIONAL WEATHER SERVICE BISMARCK ND
200 PM CST FRI NOV 17 2017

NOTE: "FAIR" INDICATES FEW OR NO CLOUDS BELOW 12,000 FEET WITH NO
SIGNIFICANT WEATHER AND/OR OBSTRUCTIONS TO VISIBILITY.


NDZ001>003-009>011-017-172100-
NORTHWEST NORTH DAKOTA

CITY           SKY/WX    TMP DP  RH WIND       PRES   REMARKS
WILLISTON      SUNNY     31  16  54 VRB3      29.65F
MINOT          SUNNY     27  13  55 NW6       29.67F
$$

NDZ018>021-031>035-040>046-172100-
SOUTHWEST NORTH DAKOTA

CITY           SKY/WX    TMP DP  RH WIND       PRES   REMARKS
BISMARCK       MOSUNNY   36  24  62 CALM      29.69S
DICKINSON      PTSUNNY   40  25  55 SE6       29.62S
GARRISON         N/A     29  18  63 CALM      29.68R
HETTINGER ARPT CLOUDY    43  24  47 SW5       29.65R
$$

NDZ004>008-012>016-024-026-027-054-172100-
NORTHEAST NORTH DAKOTA

CITY           SKY/WX    TMP DP  RH WIND       PRES   REMARKS
GRAND FORKS    CLOUDY    26  17  68 NW14      29.67F WCI  14
GRND FRKS AFB  CLOUDY    25  15  66 NW13      29.67F WCI  14
DEVILS LAKE    CLOUDY    21  15  78 W9        29.69S WCI  11
$$

NDZ022-023-025-028>030-036>039-047>053-172100-
SOUTHEAST NORTH DAKOTA

CITY           SKY/WX    TMP DP  RH WIND       PRES   REMARKS
FARGO          MOSUNNY   37  26  64 N14       29.64F
JAMESTOWN      SUNNY     28  17  63 NW13      29.68R WCI  17
$$




USA.gov is the U.S. government's official web portal to all federal, state and local government web resources and services.